User: anonymous   Login
Location: Vesunti
(61.5000°N, 22.8333°E)
Time: 20:33:08
(UTC+00:00)
Language:

Cosmos 220 Rocket - Orbit

View from above orbital plane
View from above orbital plane
View from above satellite
View from above satellite

Ground track
Ground track

The orbit data is extracted from the following two-line orbital elements,

1  3230U 68040B   20158.29944037  .00000113  00000-0  15555-4 0  9990
2  3230  74.0363 230.6791 0031587 254.5804 105.1888 14.90615313797178
Epoch (UTC): 06 June 2020 07:11:11
Eccentricity: 0.0031587
inclination: 74.0363°
perigee height: 574 km
apogee height: 618 km
right ascension of ascending node: 230.6791°
argument of perigee: 254.5804°
revolutions per day: 14.90615313
mean anomaly at epoch: 105.1888°
orbit number at epoch: 79717

The dashed part of the orbit path shows where the satellite is in the earth's shadow,  

DLR